Temp
23 23 22 21 20 18 21 24 24 27 27 27 26 27 26 24 25 24 20 21 22 23 22 22 22 22 22 22 22 21 21 21 21 21 21 20 20 20 20 19 18 18 17 18 19 19 19 19 19
23 23 22 17 19 20 22 23 25 26 26 25 26 25 25 24 22 21 20 21 22 22 22 22 22 22 22 22 22 22 21 21 21 21 21 21 20 20 19 19 18 18 17 17 17 18 18 19 19
23 22 19 17 16 22 23 25 27 27 26 27 25 24 25 23 21 21 22 22 22 21 21 21 21 21 22 22 22 22 21 21 21 21 21 21 20 19 18 18 18 18 18 16 19 19 19 18 19
23 20 17 20 23 22 24 26 27 26 27 26 25 24 24 23 22 23 23 22 21 21 20 20 20 20 21 21 21 21 21 21 21 21 20 20 20 18 18 18 18 18 17 17 18 18 19 18 18
22 16 18 20 21 22 23 24 26 26 27 26 26 24 24 21 22 22 22 21 21 20 20 20 21 20 20 20 20 20 20 20 20 20 20 19 19 19 18 18 18 18 17 18 18 18 18 18 18
19 17 19 21 22 22 22 24 28 28 26 25 25 24 23 20 21 20 21 20 21 21 20 21 21 21 21 21 20 20 20 20 20 20 20 19 19 19 18 18 17 17 17 17 18 18 18 18 17
21 18 20 21 21 22 26 24 29 28 26 27 24 24 22 19 20 20 20 21 21 21 21 21 21 20 20 20 20 20 20 19 19 19 19 19 19 18 18 18 17 17 18 17 17 18 18 17 16
18 19 22 20 22 24 25 25 28 28 27 24 25 26 26 21 20 19 20 20 20 20 20 20 19 19 19 19 19 19 19 19 19 19 19 18 18 18 18 18 18 17 17 17 17 18 18 17 16
19 19 20 23 24 24 25 25 27 26 25 25 24 23 23 21 20 19 18 18 18 19 19 19 19 18 18 18 19 19 19 19 18 18 18 18 18 17 17 18 18 18 17 17 17 17 18 17 16
20 19 22 22 25 25 24 25 27 28 26 27 24 21 19 19 18 17 17 17 17 17 18 18 18 19 19 18 18 18 18 18 18 18 18 18 17 17 17 18 18 18 18 17 17 17 17 18 17
21 21 22 24 24 22 24 25 26 27 27 26 26 21 19 18 18 18 18 17 17 18 18 18 19 19 19 18 18 18 18 18 18 18 18 17 17 17 17 17 18 17 17 17 17 17 17 17 17
23 22 24 24 25 24 24 25 27 25 27 27 25 20 19 18 18 19 18 19 18 18 19 19 19 19 18 18 18 18 18 17 18 18 18 17 17 17 17 17 17 17 17 17 16 16 17 17 17
23 23 24 23 22 22 24 24 25 25 25 25 20 20 19 19 19 20 20 20 20 19 20 20 19 19 18 18 17 17 17 18 18 18 18 17 17 17 17 17 17 17 17 17 16 15 15 15 16
22 22 21 22 23 23 25 24 25 25 25 22 20 19 18 19 19 19 19 20 20 20 20 20 19 19 18 18 17 17 17 18 18 18 18 17 17 17 17 17 17 17 17 17 16 15 15 15 14
22 22 22 23 24 24 22 24 23 24 25 23 20 19 18 19 20 19 20 19 20 20 21 20 19 19 18 18 17 17 17 18 18 19 18 18 18 17 17 16 16 16 16 15 16 15 14 14 14
22 21 21 24 23 24 25 23 24 22 25 24 21 19 19 19 19 20 21 20 20 20 20 20 19 19 19 18 18 17 17 18 19 19 19 18 18 17 16 16 16 16 15 15 15 15 14 13 13
19 21 22 22 22 24 25 23 25 23 23 24 23 20 19 19 19 21 21 21 21 21 20 20 20 19 19 18 18 17 17 17 18 18 17 17 17 16 16 15 15 15 15 15 15 14 14 12 12
21 21 21 21 22 22 23 22 21 22 24 23 22 20 19 19 19 20 19 20 21 21 21 20 19 19 19 18 17 17 17 17 17 17 17 16 16 17 15 15 15 14 14 14 13 13 12 11 11
21 21 20 20 21 22 23 21 21 21 21 20 20 20 18 18 18 17 17 18 20 19 19 19 19 19 18 17 17 16 17 17 17 17 16 16 17 16 16 15 15 14 14 14 13 12 12 11 10
20 20 20 20 21 22 20 21 20 20 21 21 21 20 19 18 16 15 15 16 17 17 17 17 18 19 18 18 17 17 17 17 17 17 17 17 17 17 16 15 14 14 14 14 13 12 11 11 10
20 20 21 22 21 20 20 19 20 22 21 22 20 17 18 16 15 14 14 15 16 16 17 17 17 17 17 17 17 17 17 17 17 17 17 16 16 15 14 14 14 14 14 14 15 13 12 10 10
21 21 22 22 21 20 21 18 19 21 20 20 19 15 16 14 13 14 14 14 15 15 17 18 17 17 17 17 17 18 18 17 17 17 17 16 15 15 14 14 13 13 12 12 12 12 11 11 10
21 23 22 22 20 19 19 18 19 19 21 21 21 16 13 13 13 15 14 14 14 15 16 17 17 17 17 18 18 18 17 18 18 16 15 15 14 14 14 13 12 12 11 11 11 11 10 10 10
22 22 18 16 16 17 19 18 18 20 22 23 18 16 13 12 12 12 13 14 15 16 16 17 17 18 18 18 18 18 18 17 16 15 15 14 14 15 14 13 12 11 11 11 10 10 10 10 9
20 19 17 18 17 17 19 18 18 21 20 20 20 16 13 13 12 12 12 12 13 15 16 17 18 18 18 18 18 17 17 16 15 16 15 15 14 14 13 12 11 11 10 10 9 9 9 9 8
19 19 17 19 18 18 18 18 19 20 20 17 17 14 12 12 12 11 11 12 13 15 16 17 17 18 17 17 17 17 16 16 16 15 14 13 13 13 12 12 11 10 10 9 9 8 8 8 8
20 19 19 19 17 15 17 18 19 19 18 16 14 13 13 13 12 12 11 12 14 15 16 17 17 17 17 17 17 17 17 16 15 14 14 15 14 13 12 11 11 10 9 9 8 8 8 7 7
20 19 18 16 18 17 16 16 19 19 19 16 14 13 13 13 12 12 11 12 14 15 16 16 16 17 17 17 16 16 15 14 14 15 15 15 14 13 11 10 10 9 9 8 7 7 7 6 6
19 19 18 18 15 17 16 18 16 19 18 17 15 14 14 14 13 12 12 13 15 15 15 15 15 16 16 16 15 15 15 15 15 15 15 14 14 13 11 10 10 9 8 7 7 6 6 5 5
19 18 18 18 17 13 14 19 18 18 18 16 15 14 13 14 12 12 11 13 14 14 15 16 15 15 15 15 14 14 14 14 13 13 14 14 13 13 12 10 9 8 7 6 5 5 5 5 5
Height
769 768 768 770 798 808 807 792 775 768 764 753 751 757 764 767 773 792 766 767 769 772 776 780 785 789 791 793 796 799 802 804 806 808 811 812 813 816 817 819 820 821 823 824 825 825 824 824 824
768 768 769 781 808 817 805 784 778 768 757 752 751 757 762 772 765 767 768 767 768 773 777 780 785 788 790 793 795 798 800 802 805 806 809 812 815 816 818 820 821 822 824 826 826 826 826 826 826
768 769 777 797 820 810 801 774 765 758 755 753 760 759 763 770 766 766 766 767 769 774 778 781 785 788 791 793 796 799 802 804 807 810 812 814 815 818 820 820 822 823 824 825 825 826 827 827 827
769 771 785 801 798 789 781 768 761 761 755 752 757 769 763 763 764 765 765 769 772 776 781 786 789 792 795 797 800 802 804 807 810 812 814 815 817 820 822 823 824 825 826 827 828 829 827 828 829
769 781 805 807 800 785 773 764 760 764 758 757 757 768 766 764 764 764 767 771 774 778 783 786 789 793 796 799 802 804 806 810 812 814 816 818 819 820 822 823 824 826 827 828 829 829 829 829 830
780 787 809 810 798 782 772 760 753 757 758 759 763 766 766 764 765 766 769 771 775 777 780 783 786 788 792 796 799 802 804 807 810 814 816 817 818 820 823 824 826 827 828 829 829 830 830 829 829
783 797 806 802 798 789 769 758 753 755 760 760 757 769 766 767 767 767 769 772 775 778 779 781 783 788 793 796 799 803 806 809 811 812 815 817 819 821 823 824 825 826 826 828 830 830 829 830 831
780 792 797 800 798 786 765 760 750 753 759 755 755 766 764 760 764 769 773 775 777 779 781 784 788 792 795 798 800 803 806 808 810 812 815 819 821 822 823 824 825 826 827 829 830 831 831 831 832
773 800 809 794 787 780 761 767 754 751 757 758 757 758 758 758 765 770 773 776 777 780 783 786 789 793 796 799 801 802 805 808 811 814 816 818 820 822 824 825 825 826 827 828 829 829 829 830 832
782 802 792 779 772 771 764 764 759 757 760 758 758 759 759 760 763 768 771 773 776 779 783 785 788 791 794 798 800 802 805 808 811 813 815 818 820 822 823 824 825 825 826 827 828 829 829 829 829
780 791 779 771 767 768 767 761 755 758 763 757 756 757 760 763 763 765 768 770 774 778 779 783 785 788 791 794 799 802 804 807 809 812 814 816 818 820 822 823 824 825 825 826 827 827 828 830 829
779 772 770 766 763 765 766 758 757 758 752 745 747 749 756 760 761 757 761 766 771 774 776 779 783 787 791 794 795 798 801 804 807 810 812 814 816 818 820 822 824 824 825 825 826 825 826 827 827
777 770 766 763 765 764 759 761 759 756 746 745 748 752 754 755 758 762 761 765 768 771 772 775 780 784 787 790 792 796 799 802 805 808 810 813 815 817 819 820 820 821 822 823 823 825 824 826 826
771 770 768 763 759 758 759 756 754 747 744 747 750 751 752 752 754 759 759 760 762 766 769 773 776 780 784 787 790 794 798 800 803 805 807 810 812 813 813 815 816 816 818 820 821 822 823 824 824
768 776 769 760 756 756 756 765 759 741 741 747 748 747 749 751 754 751 751 754 757 759 764 769 773 777 781 785 788 792 795 798 800 802 804 806 807 809 812 814 814 814 817 819 819 820 821 821 821
776 777 787 761 758 754 753 775 752 746 744 748 750 748 749 749 746 749 749 751 754 758 760 765 770 774 779 782 786 789 792 794 796 798 801 803 806 807 809 810 811 812 813 814 814 814 816 819 819
790 795 785 775 761 759 759 769 748 745 744 745 744 746 746 743 744 743 744 746 748 752 757 761 766 771 776 782 785 788 791 794 796 798 800 801 802 803 804 805 808 809 810 811 810 811 812 812 815
794 791 786 787 769 764 765 766 754 746 743 744 743 744 743 742 738 737 741 743 743 748 754 759 765 770 774 780 784 786 788 791 793 795 797 799 801 801 801 801 802 803 805 806 807 807 808 808 810
785 789 793 781 769 769 766 768 755 745 745 747 744 744 745 742 738 737 737 737 740 745 750 755 760 766 770 775 780 783 785 787 790 792 794 795 796 797 797 798 799 799 800 800 802 804 805 806 808
787 790 791 778 767 768 771 766 754 749 743 739 738 738 737 737 738 739 739 738 739 743 746 752 757 761 767 772 777 780 783 786 789 790 791 792 792 791 791 792 792 794 794 794 796 798 799 801 804
785 787 782 782 772 770 773 772 758 745 740 734 734 737 734 736 737 738 739 739 740 742 745 749 755 761 765 771 775 779 782 784 786 787 787 787 788 788 788 789 790 790 790 790 790 792 794 795 796
786 770 772 773 783 796 774 800 767 749 747 738 735 739 735 736 737 738 739 739 739 741 745 749 754 761 765 770 774 777 779 781 782 783 783 785 786 785 784 784 785 785 784 785 785 788 789 791 792
777 764 769 772 782 788 787 798 768 756 750 739 732 737 740 739 739 739 739 739 740 743 745 749 755 761 765 769 772 775 777 778 779 780 780 782 782 781 781 781 780 780 780 781 782 783 783 784 786
761 767 781 792 796 808 781 787 776 758 742 731 735 737 740 740 740 742 742 741 742 744 747 752 756 760 764 769 772 773 775 776 776 776 777 778 779 777 775 776 776 776 777 777 777 777 779 780 781
770 785 810 807 809 806 777 787 770 741 735 732 732 736 741 743 743 743 743 744 745 746 748 751 755 759 763 766 767 769 770 771 772 772 772 772 772 772 772 771 772 772 771 772 773 776 774 775 777
775 780 809 805 807 795 779 780 752 731 727 731 730 734 740 743 744 744 743 743 744 746 749 752 755 758 761 762 765 767 768 767 767 768 768 767 766 765 767 767 766 767 768 767 769 769 771 771 770
772 782 770 786 792 803 779 756 737 728 728 733 736 736 736 738 741 742 743 743 744 745 746 748 751 754 757 759 761 762 762 763 764 764 762 760 759 757 759 759 760 761 762 761 761 763 764 766 767
761 762 785 795 795 795 776 766 747 732 729 732 735 734 734 735 736 737 739 740 741 742 744 746 749 750 752 755 757 758 759 758 758 759 758 758 755 755 754 754 753 754 755 756 758 758 759 761 762
766 770 772 777 792 788 785 747 730 724 723 724 724 727 729 728 728 729 730 732 736 739 741 743 745 746 748 752 753 753 754 755 756 756 754 752 750 748 747 748 749 750 751 752 753 754 755 756 757
749 757 762 776 779 791 789 709 714 714 717 721 721 726 724 724 726 727 729 729 731 732 736 740 742 745 747 747 749 750 750 752 753 753 750 748 746 742 740 741 743 744 744 746 748 750 750 751 750
Wind_Speed
4 3 2 4 4 5 2 5 2 2 1 1 4 4 5 4 3 3 3 19 11 25 27 27 26 23 21 21 21 21 20 20 20 19 17 16 16 15 14 13 12 11 11 10 9 9 11 12 13
4 2 3 2 4 3 4 4 4 4 3 6 6 4 5 2 2 0 9 12 11 27 27 27 26 24 22 21 21 20 20 19 18 17 16 15 14 13 13 12 11 11 10 8 8 8 8 10 12
1 1 3 4 4 3 3 3 4 2 4 3 4 5 3 4 2 9 3 14 13 28 28 26 25 24 22 21 20 19 18 16 15 14 14 14 13 12 11 11 10 8 8 9 9 8 7 8 10
2 5 4 4 2 5 5 2 3 2 2 3 4 5 2 1 7 7 11 18 20 28 25 22 21 20 19 18 17 16 15 15 14 13 12 12 11 11 11 9 7 6 5 5 6 5 6 6 6
4 3 4 3 5 5 5 5 5 5 3 3 2 4 3 2 6 12 18 20 27 24 23 21 20 19 18 17 16 15 14 13 12 11 11 10 9 10 9 7 6 4 3 3 4 5 5 4 4
4 3 4 0 4 5 7 6 2 4 1 2 3 6 2 6 14 19 19 22 26 25 24 23 22 22 21 21 20 18 17 16 14 13 11 10 9 9 7 6 4 3 2 2 3 4 4 4 5
5 4 3 3 4 6 4 8 3 2 4 2 6 5 1 3 12 19 20 22 23 23 24 25 24 22 21 20 20 18 16 15 15 14 12 11 9 7 5 4 5 5 4 3 3 4 4 6 6
4 4 1 3 2 5 4 8 1 2 2 2 2 2 2 5 19 19 19 19 20 21 22 21 19 19 19 18 18 17 16 16 15 14 12 10 7 6 5 6 8 6 4 3 2 3 5 7 9
3 4 1 3 2 7 3 8 4 2 5 0 0 2 3 22 23 21 18 16 18 20 21 20 19 18 18 17 17 17 16 16 14 13 12 11 9 7 5 7 5 6 5 5 4 5 7 9 11
4 3 6 5 3 6 8 0 3 2 3 2 2 4 14 26 26 19 15 16 16 17 18 19 20 21 19 18 18 17 16 16 15 14 13 12 10 8 7 7 7 8 8 8 6 6 6 10 12
3 5 4 3 5 3 4 4 4 2 2 6 6 5 7 13 17 18 18 19 17 17 20 20 21 23 23 21 19 17 17 17 16 15 14 14 13 11 10 9 9 9 9 9 9 8 8 9 12
2 6 4 4 2 4 4 3 2 5 8 1 7 7 8 11 13 21 20 23 21 23 24 23 22 22 22 21 22 21 19 18 17 16 15 15 15 14 13 11 10 10 10 11 11 10 10 10 12
3 3 2 7 8 7 3 8 5 6 8 1 7 8 11 13 14 10 15 21 22 23 25 25 24 23 24 23 22 21 20 19 18 17 16 16 17 16 15 14 13 13 13 13 11 11 10 10 12
2 5 8 7 9 5 6 6 5 7 3 5 8 10 9 13 12 11 16 23 26 26 27 26 27 26 24 24 22 21 20 19 18 18 18 18 18 18 18 18 17 17 17 15 14 12 12 11 12
4 6 6 4 3 4 5 2 9 5 3 7 9 9 9 8 14 21 26 27 29 32 29 30 28 27 25 24 23 21 20 19 18 18 16 17 20 21 20 19 19 19 17 17 16 14 14 14 15
4 3 5 5 5 3 4 8 3 7 1 5 8 7 6 9 13 19 26 28 28 29 31 31 29 28 26 24 23 21 20 19 18 16 17 19 20 20 21 22 22 20 18 19 21 19 19 19 18
5 3 3 7 5 3 2 7 4 3 5 6 4 6 8 10 9 24 28 30 31 32 30 31 30 29 26 24 23 20 19 17 16 15 15 16 18 21 21 21 21 20 20 20 21 22 22 19 18
2 2 3 4 5 4 2 8 8 6 4 8 6 7 8 8 13 13 17 28 32 32 32 30 30 27 25 24 21 20 19 16 15 14 12 13 14 16 18 18 21 21 21 21 21 21 22 21 20
2 2 5 6 4 5 3 7 11 9 4 9 9 8 8 9 3 6 9 12 27 27 30 29 29 26 25 24 21 17 16 14 13 12 9 11 12 14 16 18 20 19 20 18 18 19 20 16 15
4 4 6 6 3 2 8 12 12 8 10 7 7 9 9 5 5 1 1 7 16 22 26 27 28 27 25 23 20 13 13 11 11 11 12 14 17 18 19 21 20 21 19 20 18 18 17 18 21
4 5 3 6 5 3 4 9 6 5 5 7 5 5 5 8 5 2 2 5 13 19 25 27 25 25 21 19 18 12 9 8 12 15 16 17 18 18 19 20 21 22 22 23 22 21 20 15 22
3 5 4 3 3 3 2 5 7 7 9 6 7 6 4 6 4 4 5 7 14 18 22 23 23 22 19 16 14 12 12 13 11 11 13 15 14 15 16 18 19 20 21 22 22 22 21 21 14
8 2 0 1 2 3 1 1 7 3 8 8 5 2 3 4 6 9 6 11 14 19 21 21 22 20 18 16 14 13 14 12 13 15 14 14 14 13 14 17 19 20 19 19 17 18 20 22 22
1 2 5 4 3 2 4 7 5 4 5 3 2 3 6 7 6 4 6 15 19 21 24 24 23 20 17 16 15 15 14 16 17 16 15 15 14 14 15 16 16 17 17 16 15 14 15 16 20
4 5 4 4 2 6 1 2 8 7 7 5 6 7 5 4 6 6 6 7 14 18 20 21 20 19 17 17 17 18 18 17 18 16 17 17 17 18 17 15 15 17 17 16 14 14 14 14 16
5 7 5 6 4 6 5 6 6 7 4 4 7 7 8 8 7 7 8 13 19 20 20 21 21 20 19 20 19 18 17 19 19 20 19 19 20 20 18 16 16 18 18 18 18 19 20 19 19
4 4 4 2 0 2 5 8 8 9 3 2 4 8 12 11 9 9 8 16 22 25 26 25 24 22 21 20 19 20 21 22 23 19 17 20 23 25 22 19 18 19 18 19 19 20 21 19 20
5 6 2 2 4 6 5 6 8 6 8 6 7 10 9 9 9 9 8 18 26 28 27 25 24 23 22 21 22 23 21 19 16 14 17 21 23 25 24 22 21 20 20 19 18 18 18 18 20
2 3 2 3 5 4 6 7 7 9 8 9 11 11 13 15 14 12 11 21 27 25 23 21 20 19 19 17 16 16 16 14 13 16 18 19 19 21 22 23 22 22 22 19 17 17 17 16 19
3 9 8 6 7 3 2 19 5 7 6 8 8 8 12 12 11 9 7 15 20 21 17 17 14 14 14 14 12 12 11 14 18 21 22 22 23 22 20 20 21 23 23 20 19 20 18 16 12
Wind_Direction
321 309 135 48 51 62 271 273 260 327 273 226 116 126 138 83 154 205 328 171 160 167 171 172 173 170 161 152 146 142 138 133 130 129 130 131 132 132 133 131 124 121 119 124 127 129 134 136 137
312 143 66 84 84 47 296 260 275 232 162 127 80 67 52 50 90 177 137 173 167 177 176 174 174 174 168 163 158 154 149 144 144 142 141 139 137 135 134 131 127 123 120 118 124 133 138 139 143
125 149 76 90 109 155 219 238 272 122 167 48 91 49 95 157 2 168 218 173 172 173 177 175 175 176 174 170 165 161 156 150 147 142 141 142 144 140 131 131 122 122 125 130 142 151 149 150 151
151 21 34 77 237 243 211 216 296 131 334 90 129 93 84 46 166 187 173 180 172 169 174 173 175 179 177 170 166 163 160 155 154 152 153 149 149 146 148 139 129 126 123 135 144 158 159 162 160
56 59 56 37 279 275 265 258 176 202 253 122 99 178 120 40 165 166 162 173 171 171 172 174 178 181 180 175 172 170 164 161 161 161 161 157 156 153 157 154 148 148 145 142 158 175 183 181 181
44 98 62 318 273 285 292 256 161 154 171 85 82 136 143 144 148 155 164 169 174 171 174 177 180 183 184 183 180 179 176 175 172 172 173 172 170 167 174 173 170 166 167 182 183 192 198 192 179
110 78 187 216 267 305 279 327 20 61 137 245 152 130 112 176 166 160 166 169 176 178 178 179 181 182 182 182 180 179 179 178 179 182 185 185 182 178 189 211 227 229 217 210 203 196 201 197 179
107 92 75 270 281 281 294 350 91 107 185 346 134 220 210 186 166 162 165 171 176 182 184 182 178 179 181 182 181 183 186 187 188 188 188 188 188 198 233 280 259 242 241 247 251 222 214 207 191
126 63 312 263 300 285 321 19 297 12 108 252 65 307 16 149 156 155 161 169 176 184 186 184 182 184 186 186 185 188 192 192 189 189 190 198 206 217 255 307 263 260 266 268 259 236 214 216 204
96 119 222 211 242 280 296 207 291 338 51 288 287 60 122 147 155 158 171 178 183 177 179 185 187 190 191 193 195 193 191 193 195 196 200 205 215 230 250 288 288 283 282 281 273 259 230 221 216
152 186 221 256 259 269 272 294 174 243 294 203 209 164 146 156 161 175 188 184 185 182 180 190 193 197 197 198 197 198 199 200 201 205 208 213 221 229 248 270 283 287 283 284 277 264 248 231 227
287 228 221 253 157 323 272 270 235 205 221 186 234 157 158 174 190 192 189 194 191 193 193 196 198 200 202 202 203 205 205 205 207 212 217 222 227 231 245 261 278 280 280 281 277 265 254 237 227
217 268 196 276 284 243 279 264 244 243 265 92 120 156 177 189 207 204 195 201 201 202 203 202 203 204 206 206 206 207 210 212 214 217 224 229 232 236 245 256 263 267 269 269 269 268 258 243 233
306 283 277 274 260 232 205 244 142 255 142 141 163 194 199 200 191 180 196 205 207 208 208 206 207 208 209 209 208 208 215 217 219 222 227 231 237 241 244 247 252 260 260 264 269 275 272 252 232
292 310 309 253 293 268 174 250 230 206 174 209 213 213 203 200 186 203 206 206 209 212 207 208 207 208 210 209 210 210 218 218 224 227 233 239 244 247 254 258 259 260 264 267 260 267 271 259 233
349 36 350 296 327 5 102 280 15 333 214 212 253 253 216 209 214 217 221 219 218 216 209 208 208 209 210 211 211 212 220 223 228 231 238 243 250 255 257 260 264 269 270 264 256 256 264 258 239
359 257 265 316 38 353 97 281 238 331 17 309 312 221 225 241 229 230 229 229 226 221 215 209 209 210 210 213 218 219 224 234 244 251 256 254 254 254 258 265 266 270 273 266 264 260 258 252 247
243 332 308 262 297 348 294 268 293 275 297 273 265 242 225 230 237 246 244 231 231 222 217 212 207 210 211 213 219 225 230 239 246 248 256 265 269 272 266 268 262 263 267 269 267 267 263 248 247
331 269 267 268 270 314 272 272 271 295 314 283 271 252 243 239 303 308 286 251 221 206 205 205 200 204 205 202 206 213 219 231 238 247 255 271 268 273 271 276 275 266 266 273 277 275 261 234 209
232 256 266 288 275 2 322 288 278 281 264 236 247 262 249 210 177 57 316 193 182 181 188 192 196 195 198 200 198 199 209 225 243 249 261 258 256 255 260 262 264 270 272 271 271 265 250 235 218
241 202 223 230 323 352 333 300 321 304 292 299 296 294 261 203 177 71 93 160 162 163 179 186 185 183 184 189 188 183 185 225 240 245 254 257 258 263 268 269 272 272 271 268 272 266 255 220 206
270 212 209 215 41 265 56 279 298 292 300 276 277 315 289 144 125 130 143 144 157 165 176 177 176 172 171 176 185 195 205 212 235 256 258 257 262 269 273 276 275 273 268 271 272 272 265 244 214
228 167 190 192 191 350 201 222 265 305 281 273 298 342 140 150 140 160 148 140 145 158 158 159 161 164 169 179 187 197 210 229 249 255 258 263 265 278 280 278 276 276 275 272 270 265 258 252 234
85 86 45 50 83 303 236 180 277 231 221 263 238 235 177 162 151 138 126 136 135 140 145 150 158 164 173 184 197 210 223 236 247 257 262 268 280 287 282 279 280 279 276 273 265 257 254 254 255
90 66 329 332 352 232 115 206 245 255 238 234 277 227 178 176 159 165 163 158 153 156 156 159 166 177 189 201 211 220 232 243 255 268 271 276 280 287 285 282 278 269 268 267 265 263 256 255 256
179 157 169 241 234 255 330 244 240 221 276 315 247 172 160 176 187 193 192 184 177 173 174 179 188 198 207 215 225 234 248 255 263 266 270 277 281 280 283 280 271 263 263 259 259 263 268 267 265
198 175 190 193 210 310 225 280 308 256 276 107 172 165 185 184 191 200 203 198 192 191 194 196 202 212 219 227 235 243 252 257 260 268 279 288 287 283 277 269 265 260 258 253 253 258 263 265 265
175 166 77 360 278 265 263 252 228 247 244 208 207 202 197 199 200 205 203 203 205 204 206 211 215 223 229 235 241 249 259 265 272 274 279 280 282 283 272 260 258 256 255 250 248 252 256 261 268
169 211 92 176 155 243 301 252 212 223 221 217 228 200 201 208 206 205 204 207 207 212 216 219 223 231 239 248 256 263 274 277 272 269 271 275 277 277 269 260 260 255 252 246 246 249 250 256 269
217 200 174 205 245 259 237 267 185 203 227 223 247 206 210 215 216 218 213 211 216 219 225 228 233 245 255 267 265 266 271 273 271 267 270 271 271 272 270 262 258 253 247 243 247 244 241 247 256